| time (UTC) | temp C | wind direction | speed KPH | gust KPH | rain 1hr cm | rain 24hr cm | rain mn cm | humidity % | barometer mb |
| 20260507004956 | 8 | 270 | 0.0 | 0.0 | 0.00 | 1.37 | 0.79 | 68 | 1015.7 |
| 20260507003956 | 9 | 270 | 0.0 | 0.0 | 0.00 | 1.37 | 0.79 | 67 | 1015.6 |
| 20260507002956 | 10 | 270 | 0.0 | 0.0 | 0.00 | 1.37 | 0.79 | 64 | 1015.5 |
| 20260507000955 | 11 | 315 | 0.0 | 0.0 | 0.00 | 1.40 | 0.79 | 63 | 1015.3 |
| 20260506235958 | 11 | 306 | 0.0 | 1.6 | 0.00 | 1.40 | 0.79 | 63 | 1015.3 |
| 20260506233058 | 12 | 294 | 0.0 | 3.2 | 0.00 | 1.40 | 0.79 | 61 | 1015.2 |
| 20260506231056 | 12 | 338 | 0.0 | 1.6 | 0.00 | 1.40 | 0.79 | 60 | 1015.3 |
| 20260506225111 | 12 | 272 | 0.0 | 3.2 | 0.00 | 1.40 | 0.79 | 61 | 1015.7 |
| 20260506223154 | 13 | 341 | 0.0 | 1.6 | 0.00 | 1.40 | 0.79 | 61 | 1015.8 |
| 20260506222201 | 13 | 284 | 0.0 | 0.0 | 0.00 | 1.40 | 0.79 | 61 | 1015.9 |
| 20260506220256 | 13 | 315 | 0.0 | 1.6 | 0.00 | 1.52 | 0.79 | 64 | 1015.3 |
| 20260506215256 | 13 | 305 | 0.0 | 1.6 | 0.00 | 1.60 | 0.79 | 62 | 1015.2 |
| 20260506214255 | 13 | 314 | 0.0 | 3.2 | 0.00 | 1.63 | 0.79 | 62 | 1015.0 |
| 20260506213256 | 13 | 316 | 0.0 | 3.2 | 0.00 | 1.63 | 0.79 | 59 | 1014.9 |
| 20260506212354 | 13 | 270 | 0.0 | 1.6 | 0.00 | 1.63 | 0.79 | 59 | 1014.7 |
| 20260506211355 | 14 | 268 | 1.6 | 8.0 | 0.00 | 1.63 | 0.79 | 62 | 1014.7 |
| 20260506210355 | 14 | 292 | 1.6 | 3.2 | 0.00 | 1.63 | 0.79 | 61 | 1014.8 |
| 20260506205454 | 15 | 337 | 0.0 | 3.2 | 0.00 | 1.63 | 0.79 | 57 | 1014.6 |
| 20260506204457 | 15 | 219 | 0.0 | 3.2 | 0.00 | 1.63 | 0.79 | 55 | 1014.6 |
| 20260506203455 | 16 | 330 | 1.6 | 3.2 | 0.00 | 1.63 | 0.79 | 55 | 1014.6 |
| 20260506202554 | 17 | 332 | 0.0 | 3.2 | 0.00 | 1.63 | 0.79 | 55 | 1014.6 |
| 20260506201556 | 18 | 32 | 1.6 | 6.4 | 0.00 | 1.63 | 0.79 | 54 | 1014.1 |
| 20260506200654 | 18 | 304 | 3.2 | 4.8 | 0.00 | 1.63 | 0.79 | 56 | 1014.2 |
| 20260506194755 | 17 | 298 | 0.0 | 4.8 | 0.00 | 1.63 | 0.79 | 61 | 1014.2 |
| 20260506193755 | 17 | 307 | 1.6 | 6.4 | 0.00 | 1.63 | 0.79 | 54 | 1014.4 |
| 20260506192756 | 17 | 282 | 1.6 | 4.8 | 0.00 | 1.63 | 0.79 | 57 | 1014.3 |
| 20260506191755 | 17 | 302 | 1.6 | 8.0 | 0.00 | 1.63 | 0.79 | 58 | 1013.9 |
| 20260506190756 | 17 | 259 | 6.4 | 12.9 | 0.00 | 1.63 | 0.79 | 57 | 1014.1 |
| 20260506183756 | 17 | 353 | 0.0 | 4.8 | 0.00 | 1.63 | 0.79 | 60 | 1014.3 |
| 20260506182756 | 16 | 70 | 1.6 | 4.8 | 0.00 | 1.63 | 0.79 | 60 | 1014.5 |
| 20260506181756 | 16 | 290 | 0.0 | 0.0 | 0.00 | 1.63 | 0.79 | 56 | 1014.5 |
| 20260506180813 | 17 | 263 | 1.6 | 3.2 | 0.00 | 1.63 | 0.79 | 58 | 1014.4 |
| 20260506175856 | 17 | 266 | 3.2 | 6.4 | 0.00 | 1.63 | 0.79 | 57 | 1014.6 |
| 20260506174854 | 17 | 269 | 1.6 | 6.4 | 0.00 | 1.63 | 0.79 | 59 | 1014.5 |
| 20260506172955 | 16 | 265 | 4.8 | 9.7 | 0.00 | 1.63 | 0.79 | 63 | 1014.6 |
| 20260506171955 | 16 | 23 | 0.0 | 4.8 | 0.00 | 1.63 | 0.79 | 64 | 1014.7 |
| 20260506165955 | 16 | 59 | 6.4 | 11.3 | 0.00 | 1.63 | 0.79 | 64 | 1014.7 |
| 20260506165053 | 16 | 11 | 1.6 | 8.0 | 0.00 | 1.63 | 0.79 | 65 | 1014.4 |
| 20260506164056 | 16 | 360 | 0.0 | 0.0 | 0.00 | 1.63 | 0.79 | 65 | 1014.6 |
| 20260506163055 | 16 | 267 | 3.2 | 6.4 | 0.00 | 1.63 | 0.79 | 65 | 1014.9 |
| 20260506162054 | 16 | 338 | 1.6 | 6.4 | 0.00 | 1.63 | 0.79 | 70 | 1014.7 |
| 20260506161956 | 16 | 56 | 3.2 | 6.4 | 0.00 | 1.63 | 0.79 | 70 | 1014.9 |
| 20260506160954 | 15 | 339 | 0.0 | 1.6 | 0.00 | 1.75 | 0.79 | 71 | 1014.7 |
| 20260506155956 | 15 | 318 | 0.0 | 6.4 | 0.00 | 1.75 | 0.79 | 75 | 1014.7 |
| 20260506154956 | 15 | 1 | 1.6 | 3.2 | 0.00 | 1.75 | 0.79 | 76 | 1014.5 |
| 20260506154054 | 15 | 315 | 1.6 | 4.8 | 0.00 | 1.75 | 0.79 | 82 | 1014.3 |
| 20260506153956 | 15 | 327 | 1.6 | 4.8 | 0.00 | 1.75 | 0.79 | 83 | 1014.2 |
| 20260506151955 | 12 | 191 | 0.0 | 1.6 | 0.00 | 1.75 | 0.79 | 93 | 1014.0 |
| 20260506150955 | 12 | 316 | 1.6 | 4.8 | 0.00 | 1.75 | 0.79 | 98 | 1013.9 |
| 20260506145955 | 12 | 359 | 3.2 | 8.0 | 0.00 | 1.75 | 0.79 | 99 | 1013.9 |
| 20260506144956 | 11 | 324 | 0.0 | 1.6 | 0.00 | 1.75 | 0.79 | 99 | 1014.0 |
| 20260506143955 | 11 | 6 | 0.0 | 3.2 | 0.00 | 1.75 | 0.79 | 98 | 1013.9 |
| 20260506142955 | 11 | 327 | 0.0 | 3.2 | 0.00 | 1.75 | 0.79 | 98 | 1013.8 |
| 20260506142054 | 11 | 331 | 0.0 | 3.2 | 0.00 | 1.75 | 0.79 | 99 | 1014.0 |
| 20260506140056 | 10 | 305 | 1.6 | 4.8 | 0.00 | 1.75 | 0.79 | 99 | 1013.3 |
| 20260506135110 | 10 | 352 | 0.0 | 3.2 | 0.00 | 1.75 | 0.79 | 99 | 1013.1 |
| 20260506134054 | 10 | 17 | 0.0 | 4.8 | 0.00 | 1.75 | 0.79 | 99 | 1013.0 |
| 20260506133153 | 9 | 315 | 0.0 | 0.0 | 0.00 | 1.75 | 0.79 | 98 | 1012.9 |
| 20260506132156 | 8 | 360 | 0.0 | 0.0 | 0.00 | 1.75 | 0.79 | 99 | 1012.8 |
| 20260506131154 | 8 | 327 | 0.0 | 3.2 | 0.00 | 1.75 | 0.79 | 99 | 1012.6 |
| 20260506130156 | 8 | 337 | 0.0 | 0.0 | 0.00 | 1.75 | 0.79 | 99 | 1012.6 |
| 20260506124256 | 8 | 337 | 0.0 | 0.0 | 0.00 | 1.75 | 0.79 | 99 | 1012.5 |
| 20260506123255 | 8 | 35 | 0.0 | 0.0 | 0.00 | 1.75 | 0.79 | 99 | 1012.3 |
| 20260506122255 | 7 | 330 | 0.0 | 3.2 | 0.00 | 1.75 | 0.79 | 99 | 1011.6 |
| 20260506122154 | 7 | 315 | 0.0 | 0.0 | 0.00 | 1.75 | 0.79 | 99 | 1011.5 |
| 20260506120212 | 7 | 11 | 0.0 | 1.6 | 0.00 | 1.75 | 0.79 | 99 | 1011.4 |
| 20260506115256 | 7 | 337 | 0.0 | 0.0 | 0.00 | 1.75 | 0.79 | 99 | 1011.7 |
| 20260506113255 | 7 | 316 | 0.0 | 0.0 | 0.03 | 1.75 | 0.79 | 99 | 1011.6 |
| 20260506112353 | 7 | 322 | 0.0 | 0.0 | 0.03 | 1.75 | 0.79 | 99 | 1011.1 |
| 20260506111354 | 7 | 27 | 0.0 | 1.6 | 0.03 | 1.75 | 0.79 | 99 | 1010.7 |
| 20260506110355 | 7 | 340 | 0.0 | 6.4 | 0.03 | 1.75 | 0.79 | 99 | 1010.3 |
| 20260506105356 | 7 | 3 | 0.0 | 1.6 | 0.03 | 1.75 | 0.79 | 99 | 1010.1 |
| 20260506104454 | 7 | 349 | 0.0 | 3.2 | 0.00 | 1.73 | 0.76 | 99 | 1010.2 |
| 20260506103455 | 7 | 298 | 0.0 | 0.0 | 0.00 | 1.73 | 0.76 | 99 | 1010.5 |
| 20260506101454 | 7 | 339 | 0.0 | 0.0 | 0.00 | 1.73 | 0.76 | 99 | 1009.9 |
| 20260506101354 | 7 | 1 | 0.0 | 4.8 | 0.00 | 1.73 | 0.76 | 99 | 1009.8 |
| 20260506095357 | 7 | 343 | 0.0 | 0.0 | 0.00 | 1.73 | 0.76 | 99 | 1009.3 |
| 20260506093354 | 7 | 337 | 0.0 | 0.0 | 0.08 | 1.73 | 0.76 | 99 | 1009.4 |
| 20260506091354 | 7 | 328 | 1.6 | 3.2 | 0.13 | 1.73 | 0.76 | 99 | 1009.5 |
| 20260506090355 | 7 | 336 | 0.0 | 1.6 | 0.18 | 1.73 | 0.76 | 98 | 1009.5 |
| 20260506085355 | 7 | 7 | 0.0 | 4.8 | 0.23 | 1.73 | 0.76 | 98 | 1009.0 |
| 20260506084355 | 7 | 1 | 0.0 | 6.4 | 0.20 | 1.68 | 0.71 | 97 | 1009.5 |
| 20260506083354 | 7 | 356 | 0.0 | 1.6 | 0.18 | 1.65 | 0.69 | 98 | 1009.7 |
| 20260506082354 | 7 | 344 | 0.0 | 1.6 | 0.15 | 1.63 | 0.66 | 98 | 1009.4 |
| 20260506081354 | 7 | 320 | 1.6 | 4.8 | 0.13 | 1.60 | 0.61 | 97 | 1009.0 |
| 20260506080355 | 7 | 330 | 0.0 | 3.2 | 0.08 | 1.55 | 0.56 | 98 | 1009.2 |
| 20260506073354 | 8 | 353 | 0.0 | 4.8 | 0.13 | 1.45 | 0.51 | 98 | 1008.6 |
| 20260506072356 | 8 | 249 | 0.0 | 0.0 | 0.15 | 1.45 | 0.51 | 97 | 1008.7 |
| 20260506071355 | 8 | 336 | 0.0 | 0.0 | 0.20 | 1.45 | 0.51 | 97 | 1008.6 |
| 20260506070453 | 8 | 337 | 0.0 | 0.0 | 0.25 | 1.45 | 0.51 | 98 | 1008.6 |
| 20260506061655 | 9 | 351 | 0.0 | 1.6 | 0.28 | 1.30 | 0.30 | 97 | 1008.8 |
| 20260506060654 | 9 | 321 | 0.0 | 3.2 | 0.28 | 1.24 | 0.28 | 97 | 1008.8 |
| 20260506050853 | 10 | 337 | 0.0 | 0.0 | 0.03 | 0.99 | 0.03 | 97 | 1009.0 |
| 20260506044856 | 11 | 312 | 0.0 | 0.0 | 0.00 | 0.97 | 0.00 | 96 | 1009.2 |
| 20260506043954 | 11 | 335 | 0.0 | 0.0 | 0.00 | 0.97 | 0.00 | 96 | 1009.1 |
| 20260506043011 | 12 | 45 | 0.0 | 0.0 | 0.05 | 0.97 | 0.00 | 95 | 1009.3 |
| 20260506041954 | 12 | 359 | 0.0 | 1.6 | 0.08 | 0.97 | 0.00 | 96 | 1009.4 |
| 20260506040955 | 13 | 346 | 0.0 | 3.2 | 0.10 | 0.97 | 0.00 | 96 | 1009.3 |
| 20260506035114 | 13 | 202 | 3.2 | 4.8 | 0.20 | 0.97 | 0.97 | 96 | 1009.4 |
| 20260506033153 | 13 | 214 | 6.4 | 9.7 | 0.20 | 0.91 | 0.91 | 96 | 1009.7 |
| 20260506032213 | 13 | 224 | 4.8 | 6.4 | 0.18 | 0.89 | 0.89 | 96 | 1009.9 |
| 20260506031256 | 14 | 226 | 6.4 | 9.7 | 0.20 | 0.86 | 0.86 | 96 | 1010.1 |
| 20260506030257 | 14 | 235 | 4.8 | 6.4 | 0.20 | 0.81 | 0.79 | 96 | 1010.2 |
| 20260506025355 | 14 | 229 | 6.4 | 9.7 | 0.20 | 0.76 | 0.76 | 96 | 1010.3 |
| 20260506023357 | 14 | 225 | 6.4 | 9.7 | 0.25 | 0.71 | 0.71 | 95 | 1010.1 |
| 20260506022356 | 14 | 222 | 3.2 | 6.4 | 0.28 | 0.71 | 0.71 | 95 | 1010.2 |
| 20260506020455 | 15 | 226 | 8.0 | 11.3 | 0.20 | 0.61 | 0.61 | 95 | 1010.1 |
| 20260506014455 | 15 | 228 | 6.4 | 9.7 | 0.13 | 0.51 | 0.51 | 95 | 1010.0 |
| 20260506013455 | 15 | 225 | 4.8 | 6.4 | 0.10 | 0.48 | 0.48 | 95 | 1009.8 |
| 20260506012455 | 15 | 224 | 1.6 | 3.2 | 0.08 | 0.46 | 0.43 | 95 | 1009.8 |
| 20260506011512 | 15 | 223 | 1.6 | 4.8 | 0.03 | 0.41 | 0.41 | 95 | 1009.7 |
| 20260506010555 | 15 | 225 | 0.0 | 4.8 | 0.05 | 0.41 | 0.41 | 95 | 1009.6 |